Home > Weather > Richmond > Past weeks

Flag for Canada Past Weather in Richmond, British Columbia, Canada — Yesterday and Last 2 Weeks

Now
68 °F

Sunny.


Feels Like: 68 °F
Forecast: 64 / 77 °F
Wind: 20 mph from Northwest

Location: Vancouver International Airport

Current Time: Jul 29, 2016 at 11:05:53 AM

Latest Report: Jul 29, 2016 at 10:00 AM


Visibility: 30 mi

Pressure: 30.01 "Hg

Humidity: 78%

Dew Point: 61 °F

Location of RichmondLocation

Past Weather in Richmond — Graph

°F

Richmond Temperature Yesterday

Maximum temperature yesterday: 75 °F (at 3:00 PM)
Minimum temperature yesterday: 63 °F (at 2:00 AM)
Average temperature yesterday: 69 °F

High & Low Weather Summary for the Past Weeks

 TemperatureHumidityPressure
High75 °F (Jul 18, 4:00 PM)100% (Jul 17, 6:00 AM)30.26 "Hg (Jul 17, 6:00 AM)
Low57 °F (Jul 15, 12:00 AM)47% (Jul 22, 3:00 PM)29.90 "Hg (Jul 17, 5:00 PM)
Average66 °F76%30.08 "Hg
* Reported Jul 14 10:00 AM — Jul 29 10:00 AM, Richmond, Weather by CustomWeather, © 2016

Note: Actual official high and low records may vary slightly from our data, if they occured in-between our weather recording intervals... More about our weather records

Advertising

Richmond Weather History for the Previous 24 Hours

Scroll right to see more
 ConditionsComfort  
Time TempWeatherWind HumidityBarometerVisibility
10:00 AM
Fri, Jul 29
68 °FSunny.20 mph78%30.01 "Hg30 mi
9:00 AM68 °FSunny.16 mph78%30.01 "Hg30 mi
8:00 AM66 °FSunny.16 mph83%30.01 "Hg30 mi
7:00 AM64 °FSunny.15 mph88%30.01 "Hg30 mi
6:00 AM64 °FClear.15 mph88%30.01 "Hg30 mi
5:00 AM64 °FClear.13 mph88%30.01 "Hg30 mi
4:00 AM64 °FClear.16 mph94%30.01 "Hg30 mi
3:00 AM66 °FClear.10 mph88%30.01 "Hg30 mi
2:00 AM66 °FClear.10 mph88%30.01 "Hg30 mi
1:00 AM66 °FClear.12 mph88%30.01 "Hg30 mi
12:00 AM66 °FClear.15 mph88%30.00 "Hg30 mi
11:00 PM
Thu, Jul 28
68 °FClear.15 mph83%30.00 "Hg30 mi
10:00 PM68 °FClear.12 mph83%30.00 "Hg30 mi
9:00 PM68 °FSunny.6 mph78%29.99 "Hg30 mi
8:00 PM72 °FSunny.7 mph73%29.99 "Hg30 mi
7:00 PM73 °FSunny.13 mph69%30.01 "Hg30 mi
6:00 PM73 °FSunny.13 mph69%30.02 "Hg30 mi
5:00 PM73 °FSunny.13 mph69%30.04 "Hg30 mi
4:00 PM73 °FSunny.15 mph69%30.06 "Hg30 mi
3:00 PM75 °FSunny.15 mph69%30.07 "Hg30 mi
2:00 PM73 °FSunny.17 mph69%30.09 "Hg30 mi
1:00 PM72 °FSunny.17 mph69%30.10 "Hg30 mi
12:00 PM72 °FSunny.16 mph73%30.12 "Hg30 mi
11:00 AM70 °FSunny.17 mph73%30.13 "Hg30 mi
Weather by CustomWeather, © 2016

See weather overviewHow to use our weather pages